{"data":{"norad_id":57337,"epoch":"2026-05-24T19:03:51.667200Z","epoch_age_seconds":92487,"freshness":"FRESH","line1":"1 57337U 23099K   26144.79434800  .00000239  00000+0  18197-4 0  9993","line2":"2 57337  43.0018 182.7687 0001354 268.8579  91.2117 15.27577829157715","mean_motion":15.27577829,"eccentricity":0.0001354,"inclination_deg":43.0018,"raan_deg":182.7687,"arg_perigee_deg":268.8579,"mean_anomaly_deg":91.2117,"bstar":1.8197e-5,"rev_number":15771,"period_min":94.266882685949,"perigee_km":482.12659132476,"apogee_km":483.98460227997,"semimajor_km":6861.1925968024,"source":"CELESTRAK","updated_at":"2026-05-25T13:38:18.287151Z"}}